Weather History for Albert Lea, MN

Change the Weather History Date:

Sunday, February 5, 2012

  Actual Average Record
Temperature  
Mean Temperature 31 °F -  
Max Temperature 32 °F 25 °F 51 °F (2005)
Min Temperature 30 °F 10 °F -16 °F (2007)
Degree Days  
Heating Degree Days 34    
Moisture  
Dew Point 27 °F    
Average Humidity 87    
Maximum Humidity 93    
Minimum Humidity 86    
Precipitation  
Precipitation 0.00 in - - ()
Sea Level Pressure  
Sea Level Pressure 30.31 in    
Wind  
Wind Speed 6 mph (WNW)    
Max Wind Speed 13 mph    
Max Gust Speed 18 mph    
Visibility 2 miles    
Events Fog    
Averages and records for this station are not official NWS values.
T = Trace of Precipitation, MM = Missing Value Source: NWS Daily Summary

Daily Weather History Graph

Daily Weather History Graph

Search for Another Location

Airport:

Trip Planner

Search our weather history database for the weather conditions in past years. The results will help you decide how hot, cold, wet, or windy it might be!

Date:

Astronomy

Feb. 05, 2012 Rise Set
Actual Time 7:26 AM CST 5:29 PM CST
Civil Twilight 6:55 AM CST 5:59 PM CST
Nautical Twilight 6:21 AM CST 6:33 PM CST
Astronomical Twilight 5:48 AM CST 7:07 PM CST
Moon 3:26 PM CST (2/5) 5:40 AM CST (2/5)
Length of Visible Light 11h 03m
Length of Day
10h 03m
Waxing Gibbous, 95% of the Moon is Illuminated
Feb 5
Waxing Gibbous
Feb 7
Full
Feb 14
Last Quarter
Feb 21
New
Feb 29
First Quarter

Hourly Weather History & Observations

Time (CST) Temp. Windchill Dew Point Humidity Pressure Visibility Wind Dir Wind Speed Gust Speed Precip Events Conditions
12:10 AM 30.2 °F 22.6 °F 26.6 °F 86% 30.30 in 0.5 mi NNW 8.1 mph - N/A Fog Light Freezing Fog
12:29 AM 30.2 °F 22.6 °F 26.6 °F 86% 30.30 in 0.5 mi NNW 8.1 mph - N/A Fog Light Freezing Fog
12:49 AM 30.2 °F 21.9 °F 26.6 °F 86% 30.30 in 0.5 mi NNW 9.2 mph - N/A Fog Light Freezing Fog
1:10 AM 30.2 °F 20.2 °F 26.6 °F 86% 30.30 in 0.5 mi NNW 12.7 mph 18.4 mph N/A Fog Light Freezing Fog
1:29 AM 30.2 °F 20.2 °F 26.6 °F 86% 30.30 in 0.5 mi NNW 12.7 mph 17.3 mph N/A Fog Light Freezing Fog
1:49 AM 30.2 °F 20.8 °F 26.6 °F 86% 30.31 in 0.8 mi NNW 11.5 mph - N/A   Overcast
2:09 AM 30.2 °F 21.3 °F 26.6 °F 86% 30.31 in 0.8 mi NNW 10.4 mph - N/A   Overcast
2:29 AM 30.2 °F 22.6 °F 26.6 °F 86% 30.31 in 0.8 mi NNW 8.1 mph - N/A   Overcast
2:50 AM 30.2 °F 23.4 °F 26.6 °F 86% 30.31 in 0.8 mi NNW 6.9 mph - N/A   Overcast
3:09 AM 30.2 °F 23.4 °F 26.6 °F 86% 30.30 in 0.8 mi NNW 6.9 mph - N/A   Overcast
3:30 AM 30.2 °F 23.4 °F 26.6 °F 86% 30.31 in 0.8 mi North 6.9 mph - N/A   Overcast
3:49 AM 30.2 °F 23.4 °F 26.6 °F 86% 30.31 in 0.8 mi NNW 6.9 mph - N/A   Overcast
4:09 AM 30.2 °F 24.3 °F 26.6 °F 86% 30.32 in 1.0 mi North 5.8 mph - N/A   Overcast
4:30 AM 30.2 °F 23.4 °F 26.6 °F 86% 30.32 in 1.2 mi NNW 6.9 mph - N/A   Overcast
4:49 AM 30.2 °F 25.4 °F 26.6 °F 86% 30.31 in 3.0 mi North 4.6 mph - N/A   Overcast
5:09 AM 30.2 °F 26.7 °F 26.6 °F 86% 30.32 in 3.0 mi NNW 3.5 mph - N/A   Overcast
5:30 AM 30.2 °F 22.6 °F 26.6 °F 86% 30.32 in 3.0 mi NNW 8.1 mph - N/A   Overcast
5:49 AM 30.2 °F 24.3 °F 26.6 °F 86% 30.31 in 1.5 mi NW 5.8 mph - N/A   Overcast
6:09 AM 30.2 °F 23.4 °F 26.6 °F 86% 30.32 in 2.0 mi NNW 6.9 mph - N/A   Overcast
6:29 AM 30.2 °F 23.4 °F 26.6 °F 86% 30.32 in 2.5 mi NNW 6.9 mph - N/A   Overcast
6:49 AM 30.2 °F 25.4 °F 26.6 °F 86% 30.32 in 3.0 mi NNW 4.6 mph - N/A   Overcast
7:09 AM 30.2 °F - 26.6 °F 86% 30.33 in 1.0 mi Calm Calm - N/A   Overcast
7:30 AM 30.2 °F - 26.6 °F 86% 30.33 in 1.8 mi Calm Calm - N/A   Overcast
7:49 AM 30.2 °F 26.7 °F 26.6 °F 86% 30.33 in 1.0 mi NW 3.5 mph - N/A   Overcast
8:09 AM 30.2 °F - 26.6 °F 86% 30.33 in 0.5 mi Calm Calm - N/A Fog Light Freezing Fog
8:29 AM 30.2 °F 25.4 °F 26.6 °F 86% 30.33 in 0.5 mi NNW 4.6 mph - N/A Fog Light Freezing Fog
8:49 AM 30.2 °F - 26.6 °F 86% 30.34 in 0.8 mi Calm Calm - N/A   Overcast
9:10 AM 30.2 °F 26.7 °F 26.6 °F 86% 30.34 in 0.5 mi West 3.5 mph - N/A Fog Light Freezing Fog
9:29 AM 30.2 °F 26.7 °F 26.6 °F 86% 30.34 in 0.5 mi NNW 3.5 mph - N/A Fog Light Freezing Fog
9:49 AM 30.2 °F 26.7 °F 26.6 °F 86% 30.35 in 1.0 mi West 3.5 mph - N/A   Overcast
10:10 AM 30.2 °F 26.7 °F 26.6 °F 86% 30.35 in 0.5 mi NNW 3.5 mph - N/A Fog Light Freezing Fog
10:29 AM 30.2 °F 25.4 °F 26.6 °F 86% 30.34 in 0.8 mi WNW 4.6 mph - N/A   Overcast
10:49 AM 30.2 °F 26.7 °F 26.6 °F 86% 30.35 in 0.5 mi WNW 3.5 mph - N/A Fog Light Freezing Fog
11:10 AM 30.2 °F 25.4 °F 26.6 °F 86% 30.35 in 1.0 mi West 4.6 mph - N/A   Overcast
11:29 AM 30.2 °F 26.7 °F 26.6 °F 86% 30.34 in 0.5 mi WNW 3.5 mph - N/A Fog Light Freezing Fog
11:49 AM 30.2 °F 25.4 °F 26.6 °F 86% 30.33 in 0.8 mi WNW 4.6 mph - N/A   Overcast
12:09 PM 30.2 °F 25.4 °F 26.6 °F 86% 30.33 in 1.8 mi West 4.6 mph - N/A   Overcast
12:29 PM 30.2 °F 25.4 °F 26.6 °F 86% 30.32 in 1.0 mi West 4.6 mph - N/A   Overcast
12:50 PM 30.2 °F 26.7 °F 26.6 °F 86% 30.32 in 1.0 mi West 3.5 mph - N/A   Overcast
1:09 PM 30.2 °F 26.7 °F 28.4 °F 93% 30.31 in 1.0 mi West 3.5 mph - N/A   Overcast
1:30 PM 30.2 °F 24.3 °F 28.4 °F 93% 30.31 in 2.5 mi West 5.8 mph - N/A   Overcast
1:49 PM 30.2 °F 26.7 °F 28.4 °F 93% 30.30 in 2.5 mi NW 3.5 mph - N/A   Overcast
2:09 PM 30.2 °F 26.7 °F 28.4 °F 93% 30.30 in 3.0 mi West 3.5 mph - N/A   Overcast
2:30 PM 32.0 °F - 28.4 °F 87% 30.29 in 2.5 mi Calm Calm - N/A   Overcast
2:49 PM 30.2 °F 26.7 °F 28.4 °F 93% 30.29 in 2.5 mi WNW 3.5 mph - N/A   Overcast
3:09 PM 32.0 °F - 28.4 °F 87% 30.29 in 3.0 mi Calm Calm - N/A   Overcast
3:29 PM 32.0 °F - 28.4 °F 87% 30.29 in 2.0 mi Calm Calm - N/A   Overcast
3:49 PM 30.2 °F 25.4 °F 28.4 °F 93% 30.29 in 4.0 mi West 4.6 mph - N/A   Overcast
4:09 PM 30.2 °F 26.7 °F 28.4 °F 93% 30.28 in 3.0 mi West 3.5 mph - N/A   Overcast
4:30 PM 30.2 °F - 28.4 °F 93% 30.28 in 3.0 mi Calm Calm - N/A   Overcast
4:49 PM 30.2 °F 25.4 °F 28.4 °F 93% 30.28 in 2.5 mi West 4.6 mph - N/A   Overcast
5:09 PM 30.2 °F - 28.4 °F 93% 30.28 in 2.5 mi Calm Calm - N/A   Overcast
5:30 PM 30.2 °F 25.4 °F 26.6 °F 86% 30.28 in 4.0 mi WSW 4.6 mph - N/A   Overcast
5:49 PM 30.2 °F 25.4 °F 28.4 °F 93% 30.28 in 3.0 mi West 4.6 mph - N/A   Overcast
6:10 PM 30.2 °F 26.7 °F 28.4 °F 93% 30.28 in 3.0 mi WSW 3.5 mph - N/A   Overcast
6:29 PM 30.2 °F 26.7 °F 26.6 °F 86% 30.28 in 3.0 mi WSW 3.5 mph - N/A   Overcast
6:50 PM 30.2 °F 26.7 °F 26.6 °F 86% 30.27 in 2.5 mi WSW 3.5 mph - N/A   Overcast
7:09 PM 30.2 °F 24.3 °F 26.6 °F 86% 30.27 in 3.0 mi West 5.8 mph - N/A   Overcast
7:30 PM 30.2 °F 23.4 °F 26.6 °F 86% 30.27 in 3.0 mi WSW 6.9 mph - N/A   Overcast
7:49 PM 30.2 °F 25.4 °F 26.6 °F 86% 30.26 in 2.5 mi West 4.6 mph - N/A   Overcast
8:10 PM 30.2 °F 24.3 °F 26.6 °F 86% 30.26 in 3.0 mi WSW 5.8 mph - N/A   Overcast
8:29 PM 30.2 °F 24.3 °F 26.6 °F 86% 30.26 in 2.5 mi SW 5.8 mph - N/A   Overcast
8:49 PM 30.2 °F 26.7 °F 26.6 °F 86% 30.25 in 2.5 mi WSW 3.5 mph - N/A   Overcast
9:09 PM 30.2 °F 26.7 °F 26.6 °F 86% 30.25 in 3.0 mi WSW 3.5 mph - N/A   Overcast
9:29 PM 30.2 °F 23.4 °F 26.6 °F 86% 30.24 in 3.0 mi WSW 6.9 mph - N/A   Overcast
9:49 PM 30.2 °F 26.7 °F 26.6 °F 86% 30.25 in 3.0 mi WSW 3.5 mph - N/A   Overcast
10:09 PM 30.2 °F 24.3 °F 26.6 °F 86% 30.24 in 3.0 mi WSW 5.8 mph - N/A   Overcast
10:30 PM 30.2 °F 26.7 °F 26.6 °F 86% 30.24 in 3.0 mi WSW 3.5 mph - N/A   Overcast
10:49 PM 30.2 °F 25.4 °F 26.6 °F 86% 30.23 in 2.5 mi WSW 4.6 mph - N/A   Overcast
11:10 PM 30.2 °F 24.3 °F 28.4 °F 93% 30.22 in 2.0 mi WSW 5.8 mph - N/A   Overcast
11:29 PM 30.2 °F 25.4 °F 28.4 °F 93% 30.22 in 1.5 mi WSW 4.6 mph - N/A   Overcast
11:50 PM 32.0 °F 26.4 °F 28.4 °F 87% 30.21 in 1.5 mi WSW 5.8 mph - N/A   Overcast